| time (UTC) | temp F | wind direction | speed MPH | gust MPH | rain 1hr in | rain 24hr in | rain mn in | humidity % | barometer mb |
| 20260506182500 | 56 | 202 | 11.0 | 18.0 | 0.02 | 0.00 | 0.02 | 93 | 29.8 |
| 20260506182000 | 56 | 210 | 15.0 | 26.0 | 0.02 | 0.00 | 0.02 | 92 | 29.8 |
| 20260506181000 | 56 | 229 | 12.0 | 20.0 | 0.02 | 0.00 | 0.02 | 93 | 29.8 |
| 20260506180500 | 56 | 212 | 17.0 | 28.0 | 0.02 | 0.00 | 0.02 | 93 | 29.8 |
| 20260506180001 | 56 | 192 | 10.0 | 17.0 | 0.02 | 0.00 | 0.02 | 93 | 29.8 |
| 20260506175500 | 56 | 207 | 9.0 | 28.0 | 0.02 | 0.00 | 0.02 | 93 | 29.8 |
| 20260506174501 | 56 | 221 | 6.0 | 22.0 | 0.01 | 0.00 | 0.01 | 93 | 29.8 |
| 20260506174000 | 56 | 207 | 23.0 | 24.0 | 0.00 | 0.00 | 0.00 | 92 | 29.8 |
| 20260506173000 | 56 | 208 | 17.0 | 22.0 | 0.00 | 0.00 | 0.00 | 92 | 29.8 |
| 20260506171500 | 56 | 232 | 13.0 | 25.0 | 0.00 | 0.00 | 0.00 | 92 | 29.8 |
| 20260506171000 | 56 | 213 | 16.0 | 24.0 | 0.00 | 0.00 | 0.00 | 91 | 29.8 |
| 20260506170500 | 56 | 220 | 24.0 | 26.0 | 0.00 | 0.00 | 0.00 | 91 | 29.8 |
| 20260506170000 | 56 | 205 | 21.0 | 27.0 | 0.00 | 0.00 | 0.00 | 90 | 29.8 |
| 20260506165500 | 56 | 201 | 19.0 | 25.0 | 0.00 | 0.00 | 0.00 | 90 | 29.8 |
| 20260506165000 | 57 | 210 | 13.0 | 30.0 | 0.00 | 0.00 | 0.00 | 89 | 29.8 |
| 20260506163500 | 57 | 210 | 9.0 | 20.0 | 0.00 | 0.00 | 0.00 | 88 | 29.8 |
| 20260506162000 | 57 | 194 | 10.0 | 27.0 | 0.00 | 0.00 | 0.00 | 87 | 29.8 |
| 20260506161500 | 57 | 209 | 12.0 | 26.0 | 0.00 | 0.00 | 0.00 | 87 | 29.8 |
| 20260506160000 | 57 | 206 | 19.0 | 24.0 | 0.00 | 0.00 | 0.00 | 87 | 29.8 |
| 20260506155000 | 57 | 209 | 13.0 | 30.0 | 0.00 | 0.00 | 0.00 | 87 | 29.8 |
| 20260506154500 | 58 | 218 | 19.0 | 26.0 | 0.00 | 0.00 | 0.00 | 86 | 29.8 |
| 20260506153500 | 58 | 239 | 13.0 | 26.0 | 0.00 | 0.00 | 0.00 | 86 | 29.8 |
| 20260506153001 | 58 | 230 | 6.0 | 29.0 | 0.00 | 0.00 | 0.00 | 86 | 29.8 |
| 20260506152500 | 58 | 213 | 15.0 | 23.0 | 0.00 | 0.00 | 0.00 | 86 | 29.8 |
| 20260506152000 | 58 | 205 | 21.0 | 28.0 | 0.00 | 0.00 | 0.00 | 86 | 29.8 |
| 20260506151500 | 58 | 215 | 9.0 | 22.0 | 0.00 | 0.00 | 0.00 | 86 | 29.8 |
| 20260506150500 | 58 | 217 | 14.0 | 26.0 | 0.00 | 0.00 | 0.00 | 86 | 29.8 |
| 20260506145500 | 58 | 182 | 17.0 | 26.0 | 0.00 | 0.00 | 0.00 | 86 | 29.8 |
| 20260506145000 | 58 | 202 | 17.0 | 24.0 | 0.00 | 0.00 | 0.00 | 86 | 29.8 |
| 20260506142500 | 58 | 202 | 9.0 | 26.0 | 0.00 | 0.00 | 0.00 | 86 | 29.8 |
| 20260506141500 | 58 | 220 | 21.0 | 25.0 | 0.00 | 0.00 | 0.00 | 85 | 29.8 |
| 20260506140500 | 58 | 213 | 18.0 | 27.0 | 0.00 | 0.00 | 0.00 | 86 | 29.8 |
| 20260506140000 | 58 | 214 | 16.0 | 28.0 | 0.00 | 0.00 | 0.00 | 86 | 29.8 |
| 20260506135000 | 58 | 201 | 15.0 | 23.0 | 0.00 | 0.00 | 0.00 | 87 | 29.8 |
| 20260506134500 | 57 | 234 | 12.0 | 28.0 | 0.00 | 0.00 | 0.00 | 87 | 29.8 |
| 20260506134000 | 58 | 227 | 15.0 | 23.0 | 0.00 | 0.00 | 0.00 | 87 | 29.8 |
| 20260506133001 | 58 | 208 | 21.0 | 23.0 | 0.00 | 0.00 | 0.00 | 87 | 29.8 |
| 20260506132500 | 57 | 209 | 11.0 | 27.0 | 0.00 | 0.00 | 0.00 | 87 | 29.8 |
| 20260506132000 | 57 | 214 | 12.0 | 23.0 | 0.00 | 0.00 | 0.00 | 87 | 29.8 |
| 20260506131500 | 57 | 237 | 8.0 | 25.0 | 0.00 | 0.00 | 0.00 | 88 | 29.8 |
| 20260506130000 | 57 | 217 | 17.0 | 23.0 | 0.00 | 0.00 | 0.00 | 88 | 29.8 |
| 20260506125500 | 57 | 213 | 24.0 | 24.0 | 0.00 | 0.00 | 0.00 | 88 | 29.8 |
| 20260506125000 | 57 | 219 | 9.0 | 18.0 | 0.00 | 0.00 | 0.00 | 88 | 29.8 |
| 20260506124500 | 57 | 226 | 12.0 | 23.0 | 0.00 | 0.00 | 0.00 | 88 | 29.8 |
| 20260506124000 | 57 | 203 | 15.0 | 24.0 | 0.00 | 0.00 | 0.00 | 87 | 29.8 |
| 20260506123500 | 58 | 224 | 16.0 | 20.0 | 0.00 | 0.00 | 0.00 | 87 | 29.8 |
| 20260506123000 | 57 | 203 | 17.0 | 24.0 | 0.00 | 0.00 | 0.00 | 87 | 29.8 |
| 20260506122500 | 58 | 233 | 10.0 | 20.0 | 0.00 | 0.00 | 0.00 | 87 | 29.8 |
| 20260506122000 | 57 | 213 | 11.0 | 23.0 | 0.00 | 0.00 | 0.00 | 88 | 29.8 |
| 20260506121500 | 57 | 209 | 17.0 | 20.0 | 0.00 | 0.00 | 0.00 | 89 | 29.8 |
| 20260506121000 | 57 | 217 | 15.0 | 25.0 | 0.00 | 0.00 | 0.00 | 88 | 29.8 |
| 20260506115000 | 57 | 205 | 11.0 | 29.0 | 0.00 | 0.00 | 0.00 | 89 | 29.8 |
| 20260506114500 | 57 | 203 | 16.0 | 24.0 | 0.00 | 0.00 | 0.00 | 89 | 29.8 |
| 20260506114000 | 57 | 203 | 8.0 | 23.0 | 0.00 | 0.00 | 0.00 | 89 | 29.8 |
| 20260506113000 | 56 | 218 | 7.0 | 19.0 | 0.00 | 0.00 | 0.00 | 90 | 29.8 |
| 20260506111000 | 56 | 233 | 11.0 | 22.0 | 0.00 | 0.00 | 0.00 | 90 | 29.8 |
| 20260506105000 | 56 | 237 | 16.0 | 21.0 | 0.00 | 0.00 | 0.00 | 91 | 29.8 |
| 20260506104500 | 56 | 196 | 9.0 | 21.0 | 0.00 | 0.00 | 0.00 | 91 | 29.8 |
| 20260506102500 | 56 | 207 | 15.0 | 21.0 | 0.00 | 0.00 | 0.00 | 91 | 29.8 |
| 20260506093500 | 56 | 219 | 15.0 | 27.0 | 0.00 | 0.00 | 0.00 | 91 | 29.8 |
| 20260506090500 | 56 | 210 | 10.0 | 19.0 | 0.00 | 0.00 | 0.00 | 91 | 29.8 |
| 20260506085000 | 56 | 206 | 13.0 | 19.0 | 0.00 | 0.00 | 0.00 | 91 | 29.8 |
| 20260506081001 | 56 | 210 | 15.0 | 23.0 | 0.00 | 0.00 | 0.00 | 89 | 29.8 |
| 20260506062500 | 57 | 225 | 19.0 | 27.0 | 0.00 | 0.00 | 0.00 | 86 | 29.9 |
| 20260506061500 | 57 | 220 | 15.0 | 31.0 | 0.00 | 0.00 | 0.00 | 86 | 29.8 |
| 20260506060500 | 57 | 221 | 15.0 | 27.0 | 0.00 | 0.00 | 0.00 | 85 | 29.9 |
| 20260506042500 | 58 | 220 | 18.0 | 27.0 | 0.00 | 0.00 | 0.00 | 84 | 29.9 |
| 20260506041500 | 58 | 228 | 16.0 | 30.0 | 0.00 | 0.00 | 0.00 | 84 | 29.9 |
| 20260506041000 | 58 | 232 | 17.0 | 26.0 | 0.00 | 0.00 | 0.00 | 83 | 29.9 |
| 20260506034500 | 58 | 238 | 18.0 | 27.0 | 0.00 | 0.00 | 0.00 | 83 | 29.9 |
| 20260506034000 | 58 | 221 | 18.0 | 27.0 | 0.00 | 0.00 | 0.00 | 83 | 29.9 |
| 20260506033500 | 58 | 218 | 13.0 | 21.0 | 0.00 | 0.00 | 0.00 | 83 | 29.9 |
| 20260506031500 | 57 | 218 | 16.0 | 18.0 | 0.00 | 0.00 | 0.00 | 83 | 29.9 |
| 20260506031000 | 58 | 214 | 17.0 | 22.0 | 0.00 | 0.00 | 0.00 | 83 | 29.9 |
| 20260506030500 | 58 | 215 | 11.0 | 28.0 | 0.00 | 0.00 | 0.00 | 83 | 29.9 |
| 20260506025000 | 58 | 221 | 11.0 | 21.0 | 0.00 | 0.00 | 0.00 | 83 | 29.9 |
| 20260506024500 | 58 | 217 | 21.0 | 27.0 | 0.00 | 0.00 | 0.00 | 83 | 29.9 |
| 20260506023500 | 58 | 218 | 18.0 | 25.0 | 0.00 | 0.00 | 0.00 | 83 | 29.9 |
| 20260506020500 | 58 | 233 | 18.0 | 30.0 | 0.00 | 0.00 | 0.00 | 82 | 29.9 |
| 20260506020000 | 59 | 227 | 19.0 | 31.0 | 0.00 | 0.00 | 0.00 | 81 | 29.9 |
| 20260506015500 | 58 | 214 | 10.0 | 29.0 | 0.00 | 0.00 | 0.00 | 81 | 29.9 |
| 20260506015001 | 58 | 214 | 11.0 | 21.0 | 0.00 | 0.00 | 0.00 | 81 | 29.9 |
| 20260506014501 | 58 | 219 | 13.0 | 19.0 | 0.00 | 0.00 | 0.00 | 81 | 29.9 |
| 20260506013500 | 59 | 210 | 15.0 | 28.0 | 0.00 | 0.00 | 0.00 | 80 | 29.9 |
| 20260506012500 | 58 | 211 | 25.0 | 29.0 | 0.00 | 0.00 | 0.00 | 80 | 29.9 |
| 20260506012000 | 58 | 220 | 17.0 | 29.0 | 0.00 | 0.00 | 0.00 | 80 | 29.9 |
| 20260506011500 | 59 | 211 | 15.0 | 25.0 | 0.00 | 0.00 | 0.00 | 79 | 29.9 |
| 20260506011000 | 59 | 208 | 15.0 | 24.0 | 0.00 | 0.00 | 0.00 | 78 | 29.9 |
| 20260506004000 | 60 | 211 | 20.0 | 36.0 | 0.00 | 0.00 | 0.00 | 77 | 29.8 |
| 20260506003500 | 59 | 210 | 24.0 | 31.0 | 0.00 | 0.00 | 0.00 | 77 | 29.8 |
| 20260506003000 | 60 | 212 | 19.0 | 29.0 | 0.00 | 0.00 | 0.00 | 77 | 29.8 |
| 20260506002500 | 60 | 211 | 13.0 | 34.0 | 0.00 | 0.00 | 0.00 | 77 | 29.8 |
| 20260506002000 | 59 | 219 | 21.0 | 30.0 | 0.00 | 0.00 | 0.00 | 77 | 29.8 |
| 20260506001500 | 60 | 211 | 21.0 | 31.0 | 0.00 | 0.00 | 0.00 | 77 | 29.8 |
| 20260506001000 | 60 | 203 | 20.0 | 31.0 | 0.00 | 0.00 | 0.00 | 77 | 29.8 |
| 20260506000500 | 60 | 201 | 8.0 | 25.0 | 0.00 | 0.00 | 0.00 | 77 | 29.8 |
| 20260506000000 | 60 | 219 | 19.0 | 29.0 | 0.00 | 0.00 | 0.00 | 77 | 29.8 |
| 20260505235500 | 60 | 207 | 18.0 | 34.0 | 0.00 | 0.00 | 0.00 | 77 | 29.8 |
| 20260505234500 | 60 | 198 | 13.0 | 32.0 | 0.00 | 0.00 | 0.00 | 76 | 29.8 |
| 20260505233000 | 60 | 215 | 22.0 | 31.0 | 0.00 | 0.00 | 0.00 | 76 | 29.8 |
| 20260505231000 | 60 | 223 | 17.0 | 46.0 | 0.00 | 0.00 | 0.00 | 76 | 29.8 |
| 20260505230500 | 60 | 204 | 16.0 | 41.0 | 0.00 | 0.00 | 0.00 | 77 | 29.8 |
| 20260505230000 | 60 | 212 | 16.0 | 38.0 | 0.00 | 0.00 | 0.00 | 77 | 29.8 |
| 20260505225000 | 60 | 219 | 13.0 | 25.0 | 0.00 | 0.00 | 0.00 | 77 | 29.8 |
| 20260505224500 | 60 | 219 | 18.0 | 31.0 | 0.00 | 0.00 | 0.00 | 77 | 29.8 |
| 20260505224000 | 60 | 214 | 13.0 | 30.0 | 0.00 | 0.00 | 0.00 | 77 | 29.8 |
| 20260505223500 | 60 | 218 | 19.0 | 35.0 | 0.00 | 0.00 | 0.00 | 77 | 29.8 |
| 20260505222500 | 60 | 205 | 17.0 | 36.0 | 0.00 | 0.00 | 0.00 | 76 | 29.8 |
| 20260505221500 | 60 | 215 | 27.0 | 30.0 | 0.00 | 0.00 | 0.00 | 76 | 29.8 |
| 20260505221000 | 60 | 202 | 16.0 | 25.0 | 0.00 | 0.00 | 0.00 | 76 | 29.8 |
| 20260505220500 | 61 | 195 | 26.0 | 33.0 | 0.00 | 0.00 | 0.00 | 75 | 29.8 |
| 20260505220000 | 60 | 199 | 19.0 | 29.0 | 0.00 | 0.00 | 0.00 | 75 | 29.8 |
| 20260505215500 | 60 | 206 | 20.0 | 26.0 | 0.00 | 0.00 | 0.00 | 75 | 29.8 |
| 20260505215000 | 60 | 210 | 19.0 | 30.0 | 0.00 | 0.00 | 0.00 | 76 | 29.8 |
| 20260505214501 | 60 | 221 | 17.0 | 26.0 | 0.00 | 0.00 | 0.00 | 75 | 29.8 |
| 20260505213500 | 60 | 202 | 16.0 | 27.0 | 0.00 | 0.00 | 0.00 | 75 | 29.8 |
| 20260505213000 | 60 | 197 | 18.0 | 30.0 | 0.00 | 0.00 | 0.00 | 74 | 29.8 |
| 20260505212000 | 61 | 192 | 15.0 | 31.0 | 0.00 | 0.00 | 0.00 | 74 | 29.8 |
| 20260505211500 | 61 | 197 | 8.0 | 32.0 | 0.00 | 0.00 | 0.00 | 73 | 29.8 |
| 20260505211000 | 61 | 216 | 25.0 | 32.0 | 0.00 | 0.00 | 0.00 | 74 | 29.8 |
| 20260505210500 | 61 | 194 | 10.0 | 32.0 | 0.00 | 0.00 | 0.00 | 74 | 29.8 |
| 20260505210000 | 61 | 186 | 12.0 | 33.0 | 0.00 | 0.00 | 0.00 | 74 | 29.8 |
| 20260505205500 | 61 | 215 | 23.0 | 31.0 | 0.00 | 0.00 | 0.00 | 74 | 29.8 |
| 20260505205000 | 61 | 200 | 26.0 | 28.0 | 0.00 | 0.00 | 0.00 | 73 | 29.8 |
| 20260505204500 | 61 | 193 | 5.0 | 29.0 | 0.00 | 0.00 | 0.00 | 74 | 29.8 |
| 20260505204000 | 61 | 196 | 26.0 | 30.0 | 0.00 | 0.00 | 0.00 | 74 | 29.8 |
| 20260505203500 | 61 | 207 | 27.0 | 31.0 | 0.00 | 0.00 | 0.00 | 74 | 29.8 |
| 20260505203000 | 61 | 206 | 16.0 | 29.0 | 0.00 | 0.00 | 0.00 | 75 | 29.8 |
| 20260505202500 | 60 | 214 | 15.0 | 26.0 | 0.00 | 0.00 | 0.00 | 76 | 29.8 |
| 20260505202001 | 60 | 207 | 15.0 | 23.0 | 0.00 | 0.00 | 0.00 | 76 | 29.8 |
| 20260505201501 | 60 | 224 | 21.0 | 26.0 | 0.00 | 0.00 | 0.00 | 77 | 29.8 |
| 20260505201000 | 60 | 212 | 18.0 | 27.0 | 0.00 | 0.00 | 0.00 | 76 | 29.8 |
| 20260505195500 | 60 | 223 | 27.0 | 30.0 | 0.00 | 0.00 | 0.00 | 76 | 29.8 |
| 20260505195000 | 61 | 230 | 6.0 | 24.0 | 0.00 | 0.00 | 0.00 | 76 | 29.8 |
| 20260505194501 | 61 | 215 | 8.0 | 14.0 | 0.00 | 0.00 | 0.00 | 77 | 29.8 |
| 20260505194000 | 60 | 210 | 8.0 | 17.0 | 0.00 | 0.00 | 0.00 | 77 | 29.8 |
| 20260505193500 | 61 | 216 | 18.0 | 22.0 | 0.00 | 0.00 | 0.00 | 76 | 29.8 |
| 20260505193000 | 61 | 216 | 12.0 | 19.0 | 0.00 | 0.00 | 0.00 | 76 | 29.8 |
| 20260505192500 | 61 | 217 | 13.0 | 21.0 | 0.00 | 0.00 | 0.00 | 77 | 29.8 |
| 20260505192000 | 60 | 245 | 16.0 | 19.0 | 0.00 | 0.00 | 0.00 | 77 | 29.8 |
| 20260505191500 | 60 | 207 | 17.0 | 27.0 | 0.00 | 0.00 | 0.00 | 77 | 29.8 |
| 20260505191000 | 60 | 222 | 13.0 | 27.0 | 0.00 | 0.00 | 0.00 | 77 | 29.8 |
| 20260505190500 | 60 | 208 | 9.0 | 21.0 | 0.00 | 0.00 | 0.00 | 77 | 29.8 |
| 20260505190000 | 61 | 237 | 14.0 | 22.0 | 0.00 | 0.00 | 0.00 | 76 | 29.8 |
| 20260505185500 | 60 | 242 | 11.0 | 23.0 | 0.00 | 0.00 | 0.00 | 78 | 29.8 |
| 20260505185000 | 60 | 226 | 11.0 | 19.0 | 0.00 | 0.00 | 0.00 | 78 | 29.8 |
| 20260505184500 | 60 | 214 | 12.0 | 25.0 | 0.00 | 0.00 | 0.00 | 77 | 29.8 |
| 20260505184000 | 60 | 252 | 12.0 | 16.0 | 0.00 | 0.00 | 0.00 | 78 | 29.8 |
| 20260505183500 | 60 | 256 | 9.0 | 16.0 | 0.00 | 0.00 | 0.00 | 77 | 29.8 |